[[{"header":{"parameterUnit":"m.s-1","parameterCategory":1,"la1":30.2991,"la2":30.254,"lo1":-89.0895,"lo2":-89.0444,"dy":0.0017,"dx":0.0017,"nx":28,"ny":28,"refTime":"2024-04-27T09:00:00:Z","depth":0,"parameterNumber":2,"parameterNumberName":"U-component_of_WINDS"},"data":[0,0,0,0,0,0,0,0,0,0,0,0,0,0,0,0,0,0,0,0,0,0,0,0,0,0,0,0,0,0,0,0,0,0,0,0,0,0,0,0,0,0,0,0,0,0,0,0,0,0,0,0,0,0,0,0,0,0,-6.793,-6.7931,0,-6.8033,-6.8035,-6.8036,-6.8038,-6.8037,-6.8036,-6.8034,-6.8137,-6.8141,-6.8145,0,0,0,0,0,0,0,0,0,0,0,0,0,-6.7732,-6.7736,-6.793,-6.7931,-6.7932,-6.8033,-6.8035,-6.8036,-6.8038,-6.8037,-6.8035,-6.8034,-6.8136,-6.8141,-6.8146,0,0,0,0,0,0,0,0,0,0,0,0,0,-6.7825,-6.7737,-6.7929,-6.7946,-6.7948,-6.8033,-6.8035,-6.8037,-6.8039,-6.8037,-6.8035,-6.8033,-6.8135,-6.814,-6.8146,-6.8221,0,0,-6.8164,-6.8167,0,0,0,0,0,0,0,0,-6.782,-6.7832,-6.7942,-6.7945,-6.7948,-6.8021,-6.8003,-6.8098,-6.8039,-6.8004,-6.8034,-6.8032,-6.81,-6.8109,-6.8132,-6.8226,-6.823,-6.8165,-6.8168,-6.8171,-6.8173,0,0,0,0,0,0,0,-6.7813,-6.7828,-6.7971,-6.7943,-6.7947,-6.7947,-6.7958,-6.8021,-6.8061,-6.8007,-6.8008,-6.802,-6.8101,-6.8127,-6.8135,-6.8232,-6.8165,-6.817,-6.8173,-6.8176,-6.8393,-6.8395,0,0,0,0,0,0,-6.7804,-6.7822,-6.7967,-6.7974,-6.7878,-6.7952,-6.7965,-6.7999,-6.8061,-6.8068,-6.8022,-6.802,-6.8117,-6.8128,-6.8138,-6.8229,-6.8171,-6.8176,-6.818,-6.8391,-6.8393,-6.8396,0,0,0,0,0,0,-6.78,-6.7817,-6.7963,-6.7898,-6.7917,-6.7958,-6.7997,-6.8002,-6.8028,-6.8072,-6.8079,-6.804,-6.8116,-6.813,-6.8201,-6.8233,-6.8179,-6.8184,-6.8388,-6.8392,-6.8395,-6.8412,0,0,0,0,0,0,-6.7794,-6.7815,-6.7844,-6.7899,-6.792,-6.8024,-6.7999,-6.8006,-6.8038,-6.8037,-6.8091,-6.8098,-6.8116,-6.8192,-6.8207,-6.824,-6.8189,-6.8385,-6.839,-6.8394,-6.8409,-6.8416,-6.8422,0,0,0,0,0,-6.7787,-6.7844,-6.7845,-6.7863,-6.7957,-6.8026,-6.8038,-6.8058,-6.8041,-6.807,-6.8099,-6.8096,-6.8228,-6.8199,-6.8216,-6.8251,-6.8383,-6.8388,-6.8393,-6.8406,-6.8414,-6.8422,0,0,0,0,0,0,-6.7789,-6.7851,-6.7853,-6.793,-6.7973,-6.8026,-6.8063,-6.8066,-6.8114,-6.811,-6.8133,-6.8145,-6.8216,-6.8241,-6.8208,-6.8328,-6.8304,-6.8312,-6.8308,-6.8316,-6.8322,-6.8313,-6.8194,0,0,0,0,0,-6.7799,-6.785,-6.7902,-6.7964,-6.7986,-6.8021,-6.8052,-6.8064,-6.8109,-6.8126,-6.816,-6.8203,-6.8254,-6.8287,-6.8337,-6.8414,-6.8426,-6.8447,-6.8454,-6.8459,-6.8465,-6.8508,-6.8518,-6.8412,-6.8412,-6.8412,0,0,-6.7819,-6.7859,-6.789,-6.7966,-6.8,-6.8052,-6.8036,-6.8091,-6.813,-6.8134,-6.8203,-6.823,-6.828,-6.8354,-6.8389,-6.8378,-6.8497,-6.8465,-6.8469,-6.8472,-6.8514,-6.8524,-6.8533,-6.8416,-6.8415,-6.8415,0,0,-6.7881,-6.7917,-6.7973,-6.801,-6.8063,-6.8087,-6.8101,-6.8154,-6.8173,-6.8243,-6.8248,-6.8295,-6.8382,-6.8418,-6.8447,-6.8527,-6.8526,-6.8543,-6.8575,-6.8617,-6.8625,-6.8632,-6.8659,-6.8669,-6.855,-6.855,-6.855,0,-6.7898,-6.7977,-6.8001,-6.8057,-6.8091,-6.8101,-6.8157,-6.8191,-6.8257,-6.828,-6.8268,-6.8379,-6.8413,-6.8496,-6.8516,-6.8541,-6.8556,-6.8535,-6.8622,-6.863,-6.8637,-6.8663,-6.8673,-6.8551,-6.8551,-6.8551,-6.8551,0,-6.7995,-6.805,-6.8089,-6.8155,-6.8193,-6.8249,-6.8282,-6.8318,-6.8329,-6.8354,-6.8426,-6.8468,-6.8526,-6.8548,-6.8558,-6.8633,-6.8625,-6.8617,-6.8592,-6.8648,-6.8673,-6.8683,-6.8553,-6.8553,-6.8552,-6.8552,0,0,-6.8056,-6.8138,-6.8152,-6.8182,-6.8244,-6.8287,-6.8344,-6.8403,-6.8433,-6.848,-6.8528,-6.8605,-6.8599,-6.8632,-6.8647,-6.8685,-6.8744,-6.8673,-6.8674,-6.8682,-6.8829,-6.8832,-6.8843,-6.8747,-6.8749,-6.875,-6.8824,0,-6.8123,-6.8225,-6.8251,-6.8338,-6.8389,-6.8402,-6.8452,-6.8495,-6.8522,-6.8569,-6.8598,-6.8651,-6.864,-6.866,-6.8698,-6.8729,-6.8774,-6.8725,-6.879,-6.8792,-6.8773,-6.8856,-6.8859,-6.8926,-6.8834,-6.8836,-6.8837,0,-6.8213,-6.8264,-6.8356,-6.8414,-6.8436,-6.848,-6.8537,-6.8583,-6.8633,-6.865,-6.869,-6.8702,-6.8762,-6.8738,-6.8822,-6.8788,-6.8817,-6.8837,-6.884,-6.8844,-6.8815,-6.8859,-6.8948,-6.8957,-6.8853,-6.8852,-6.885,0,-6.8246,-6.8338,-6.8405,-6.8432,-6.85,-6.8531,-6.8561,-6.861,-6.8644,-6.8695,-6.8717,-6.8774,-6.8804,-6.8848,-6.8875,-6.8856,-6.8956,-6.8935,-6.8971,-6.897,-6.8987,-6.8985,-6.9079,-6.9012,-6.9012,-6.9011,-6.9011,0,-6.8316,-6.8371,-6.8421,-6.8462,-6.8525,-6.8556,-6.8617,-6.8647,-6.8691,-6.8738,-6.8754,-6.8798,-6.8833,-6.8882,-6.8904,-6.8969,-6.8984,-6.8998,-6.9002,-6.8995,-6.8992,-6.9011,-6.9006,-6.9014,-6.9014,-6.9013,-6.9013,0,-6.8361,-6.8397,-6.8471,-6.8532,-6.8548,-6.8592,-6.8643,-6.8684,-6.8713,-6.8772,-6.8788,-6.8833,-6.8891,-6.8924,-6.8998,-6.9013,-6.9085,-6.9089,-6.9068,-6.9069,-6.9102,-6.9098,-6.9209,-6.9224,-6.9149,-6.915,-6.915,0,-6.8401,-6.8445,-6.8511,-6.8544,-6.8575,-6.8629,-6.8665,-6.8697,-6.8734,-6.8797,-6.883,-6.889,-6.8939,-6.9032,-6.9071,-6.9128,-6.9131,-6.9167,-6.9139,-6.913,-6.9129,-6.9125,-6.9129,-6.9169,-6.917,-6.9171,-6.9171,0,-6.8469,-6.8485,-6.8537,-6.8596,-6.8639,-6.8686,-6.8733,-6.876,-6.8801,-6.8842,-6.8902,-6.8941,-6.9018,-6.9077,-6.9138,-6.9168,-6.9176,-6.918,-6.9191,-6.9181,-6.9167,-6.9173,-6.9077,-6.9176,-6.9176,-6.9175,-6.9175,-6.9175,-6.8511,-6.8551,-6.8604,-6.8661,-6.8701,-6.8746,-6.8787,-6.8822,-6.8874,-6.8939,-6.8956,-6.902,-6.9071,-6.9154,-6.9187,-6.9237,-6.9231,-6.9247,-6.925,-6.9253,-6.9253,-6.9162,-6.9249,-6.9249,-6.9249,-6.9249,-6.9249,0,-6.8577,-6.8613,-6.8666,-6.8733,-6.8778,-6.8785,-6.8839,-6.8876,-6.8932,-6.8981,-6.903,-6.9101,-6.9159,-6.9204,-6.9264,-6.9296,-6.9301,-6.931,-6.9306,-6.9313,-6.9256,-6.924,-6.9305,-6.9305,-6.9305,-6.9305,-6.9305,-6.9305,-6.8617,-6.8684,-6.8707,-6.8794,-6.883,-6.8893,-6.8923,-6.8964,-6.9003,-6.9082,-6.9131,-6.9161,-6.9208,-6.9272,-6.9326,-6.9338,-6.9358,-6.9367,-6.9378,-6.9324,-6.9317,-6.9311,-6.9296,-6.9371,-6.9371,-6.9431,-6.9431,-6.9432]},{"header":{"parameterUnit":"m.s-1","parameterCategory":1,"la1":30.2991,"la2":30.254,"lo1":-89.0895,"lo2":-89.0444,"dy":0.0017,"dx":0.0017,"nx":28,"ny":28,"refTime":"2024-04-27T09:00:00:Z","depth":0,"parameterNumber":3,"parameterNumberName":"V-component_of_WINDS"},"data":[0,0,0,0,0,0,0,0,0,0,0,0,0,0,0,0,0,0,0,0,0,0,0,0,0,0,0,0,0,0,0,0,0,0,0,0,0,0,0,0,0,0,0,0,0,0,0,0,0,0,0,0,0,0,0,0,0,0,5.0018,5.0019,0,5.0083,5.0084,5.0084,5.0143,5.0143,5.0144,5.0145,5.0206,5.0207,5.0208,0,0,0,0,0,0,0,0,0,0,0,0,0,4.9942,4.9943,5.0018,5.0019,5.002,5.0083,5.0084,5.0085,5.0142,5.0143,5.0144,5.0145,5.0205,5.0206,5.0208,0,0,0,0,0,0,0,0,0,0,0,0,0,4.9988,4.9943,5.0018,5.0056,5.006,5.0083,5.0084,5.0085,5.0142,5.0143,5.0144,5.0145,5.0205,5.0206,5.0208,5.0196,0,0,5.0212,5.0213,0,0,0,0,0,0,0,0,4.9985,4.999,5.005,5.0054,5.0058,5.0106,5.0079,5.0122,5.0142,5.0111,5.0145,5.0146,5.0171,5.0176,5.0185,5.0198,5.0201,5.0212,5.0213,5.0214,5.0214,0,0,0,0,0,0,0,4.9982,4.9988,5.0043,5.0051,5.0056,5.007,5.0077,5.0088,5.0134,5.0114,5.0118,5.0125,5.0174,5.0184,5.0187,5.0202,5.0212,5.0214,5.0215,5.0215,5.0212,5.0211,0,0,0,0,0,0,4.9973,4.9985,5.0041,5.0045,5.0024,5.007,5.0079,5.0089,5.0134,5.0142,5.0124,5.0128,5.0181,5.0185,5.0189,5.0181,5.0214,5.0215,5.0216,5.0213,5.0212,5.0211,0,0,0,0,0,0,4.9971,4.9978,5.0039,5.0016,5.0025,5.007,5.0082,5.009,5.01,5.0142,5.0151,5.0126,5.0182,5.0187,5.0195,5.0183,5.0216,5.0217,5.0214,5.0213,5.0212,5.0161,0,0,0,0,0,0,4.9969,4.9977,4.9973,5.0016,5.0026,5.0044,5.0081,5.0091,5.0103,5.0108,5.0146,5.0153,5.0183,5.0192,5.0196,5.0186,5.0218,5.0216,5.0214,5.0212,5.0164,5.0158,5.0153,0,0,0,0,0,4.9966,4.9954,4.9972,4.9979,5.0023,5.0043,5.0049,5.0084,5.0102,5.0098,5.0126,5.0152,5.0184,5.0193,5.0198,5.0187,5.0216,5.0214,5.0212,5.0166,5.0159,5.0153,0,0,0,0,0,0,4.9905,4.996,4.9981,4.9983,5.0008,5.0053,5.0049,5.0075,5.0094,5.0098,5.014,5.0148,5.0151,5.017,5.0179,5.018,5.0204,5.0203,5.0167,5.0161,5.0156,5.0151,5.022,0,0,0,0,0,4.9892,4.9905,4.9952,4.9949,4.9961,5.0003,5.0013,5.0039,5.0066,5.0076,5.0104,5.0129,5.0145,5.0154,5.017,5.0167,5.0177,5.0163,5.0157,5.0153,5.0151,5.0154,5.0148,5.0204,5.0204,5.0204,0,0,4.9865,4.9897,4.9902,4.9938,4.9961,4.9973,5.0011,5.0022,5.0032,5.0077,5.0087,5.0109,5.0139,5.0142,5.0144,5.0157,5.0138,5.015,5.0146,5.0147,5.0151,5.0146,5.0141,5.0203,5.0203,5.0203,0,0,4.9822,4.9847,4.9849,4.9872,4.9907,4.9936,4.9936,4.9978,4.9995,5.0006,5.0042,5.0054,5.0079,5.01,5.0114,5.0084,5.0109,5.0088,5.0059,5.0061,5.0057,5.0053,5.0044,5.004,5.0086,5.0086,5.0086,0,4.9784,4.9805,4.9846,4.9856,4.9872,4.9917,4.992,4.9939,4.9977,4.9986,5.0001,5.0037,5.006,5.007,5.0063,5.0072,5.0075,5.0083,5.0054,5.0051,5.0048,5.004,5.0036,5.0083,5.0084,5.0084,5.0084,0,4.9757,4.9771,4.9768,4.9807,4.9823,4.9828,4.987,4.9881,4.9906,4.9933,4.9945,4.9975,5.0,5.0004,5.0027,5.0018,5.0026,5.0047,5.0072,5.004,5.0033,5.003,5.0079,5.008,5.0081,5.0082,0,0,4.9675,4.974,4.9738,4.9758,4.9802,4.9813,4.9822,4.9849,4.9858,4.9883,4.9892,4.9915,4.9936,4.9952,4.9978,4.998,4.9957,5.0001,5.0003,4.9993,4.9951,4.9935,4.9931,4.9974,4.9974,4.9974,4.9949,0,4.9641,4.9661,4.97,4.9708,4.9723,4.9768,4.9776,4.9803,4.9829,4.9845,4.9873,4.989,4.9915,4.9926,4.993,4.9959,4.9949,4.9961,4.9983,4.9983,4.9975,4.9927,4.991,4.9885,4.9946,4.9946,4.9945,0,4.9602,4.9629,4.9638,4.9685,4.9693,4.9699,4.9729,4.9744,4.9776,4.9795,4.9815,4.9846,4.9858,4.9881,4.9899,4.9906,4.9918,4.9934,4.9934,4.9937,4.9962,4.993,4.9878,4.9875,4.9941,4.9942,4.9942,0,4.9544,4.9582,4.9594,4.9609,4.9662,4.9666,4.9688,4.9723,4.9738,4.9763,4.9774,4.9799,4.9813,4.9832,4.9869,4.9882,4.9883,4.9909,4.99,4.9899,4.9897,4.9897,4.9847,4.9903,4.9904,4.9904,4.9904,0,4.9502,4.9507,4.9569,4.9576,4.9583,4.9628,4.9634,4.966,4.9691,4.9704,4.9743,4.9754,4.9802,4.9819,4.9847,4.9859,4.9864,4.988,4.9888,4.9877,4.9875,4.9885,4.9888,4.9903,4.9903,4.9903,4.9903,0,4.9438,4.948,4.9496,4.9547,4.956,4.9563,4.9606,4.9615,4.9645,4.9661,4.9667,4.9714,4.9736,4.9775,4.9807,4.9827,4.9833,4.9845,4.9822,4.9827,4.9816,4.9817,4.9771,4.9768,4.9825,4.9824,4.9824,0,4.9409,4.9414,4.9467,4.948,4.9502,4.9521,4.9538,4.9583,4.9598,4.9638,4.9642,4.9668,4.9692,4.9725,4.9761,4.9786,4.98,4.9783,4.9804,4.9794,4.9802,4.9801,4.9803,4.9777,4.9777,4.9776,4.9775,0,4.9353,4.9374,4.9398,4.9429,4.9449,4.9475,4.9503,4.9511,4.9562,4.9578,4.9603,4.9621,4.9656,4.9682,4.9713,4.9735,4.9764,4.9769,4.9768,4.9757,4.9745,4.9753,4.981,4.9769,4.977,4.977,4.9771,4.9771,4.9307,4.9315,4.9354,4.938,4.9406,4.9433,4.9445,4.9478,4.95,4.9533,4.9558,4.9582,4.9617,4.9663,4.9684,4.9703,4.9716,4.9714,4.9714,4.9713,4.971,4.9742,4.9708,4.9708,4.9709,4.9709,4.9709,0,4.9254,4.9283,4.9306,4.9346,4.9367,4.9395,4.9428,4.9443,4.9464,4.9495,4.9519,4.9548,4.9574,4.9613,4.9642,4.965,4.9664,4.9656,4.9656,4.9661,4.9696,4.9694,4.9644,4.9644,4.9644,4.9644,4.9644,4.9644,4.923,4.9246,4.9272,4.9302,4.9331,4.9356,4.9373,4.9398,4.9424,4.9456,4.9478,4.9505,4.954,4.9572,4.9597,4.9608,4.9618,4.9606,4.9621,4.9652,4.9658,4.9664,4.9663,4.9607,4.9607,4.9585,4.9585,4.9584]}]]